Tracking 30692 objects as of 16-Jun-2025
HD Live streaming from Space Station
objects crossing your sky now

YAOGAN-36 01A

Track YAOGAN-36 01A now!
10-day predictions


NORAD ID: 53943
Int'l Code: 2022-120A
Perigee: 517.1 km
Apogee: 527.1 km
Inclination: 35.0 °
Period: 94.9 minutes
Semi major axis: 6893 km
RCS: Unknown
Launch date: September 26, 2022
Source: People's Republic of China (PRC)
Launch site: Xichang Space Center, China (XSC)
Your satellite tracking list
Your tracking list is empty




NASA's NSSDC Master Catalog

Two Line Element Set (TLE):
1 53943U 22120A   25167.36628509  .00005012  00000-0  24944-3 0  9995
2 53943  34.9930  56.0521 0007302 297.7060  62.2912 15.16980842151605
Source of the keplerian elements: AFSPC